[[{"header":{"parameterUnit":"m.s-1","parameterCategory":1,"la1":30.2991,"la2":30.254,"lo1":-89.0895,"lo2":-89.0444,"dy":0.0017,"dx":0.0017,"nx":28,"ny":28,"refTime":"2024-06-21T09:00:00:Z","depth":0,"parameterNumber":2,"parameterNumberName":"U-component_of_WINDS"},"data":[0,0,0,0,0,0,0,0,0,0,0,0,0,0,0,0,0,0,0,0,0,0,0,0,0,0,0,0,0,0,0,0,0,0,0,0,0,0,0,0,0,0,0,0,0,0,0,0,0,0,0,0,0,0,0,0,0,0,-4.9131,-4.913,0,-4.9068,-4.9067,-4.9066,-4.8962,-4.896,-4.8958,-4.8956,-4.8893,-4.8893,-4.8893,0,0,0,0,0,0,0,0,0,0,0,0,0,-4.9164,-4.9164,-4.9131,-4.913,-4.913,-4.9068,-4.9067,-4.9066,-4.8962,-4.896,-4.8957,-4.8955,-4.8893,-4.8893,-4.8893,0,0,0,0,0,0,0,0,0,0,0,0,0,-4.9131,-4.9164,-4.9131,-4.907,-4.9064,-4.9068,-4.9067,-4.9066,-4.8963,-4.896,-4.8957,-4.8954,-4.8893,-4.8893,-4.8893,-4.8952,0,0,-4.8894,-4.8894,0,0,0,0,0,0,0,0,-4.9133,-4.9129,-4.908,-4.9074,-4.9068,-4.902,-4.9055,-4.9028,-4.8963,-4.9001,-4.8956,-4.8953,-4.8938,-4.8934,-4.8928,-4.8949,-4.8947,-4.8894,-4.8894,-4.8894,-4.8894,0,0,0,0,0,0,0,-4.9135,-4.9132,-4.9106,-4.9079,-4.9072,-4.9047,-4.9039,-4.905,-4.8987,-4.8998,-4.899,-4.8984,-4.8934,-4.8929,-4.8926,-4.8946,-4.8894,-4.8894,-4.8894,-4.8894,-4.9014,-4.9017,0,0,0,0,0,0,-4.9146,-4.9134,-4.9108,-4.9104,-4.9094,-4.9049,-4.904,-4.9038,-4.8986,-4.8975,-4.8986,-4.8979,-4.893,-4.8926,-4.8924,-4.899,-4.8894,-4.8894,-4.8894,-4.9011,-4.9015,-4.9018,0,0,0,0,0,0,-4.9147,-4.9145,-4.9111,-4.9117,-4.9111,-4.9051,-4.905,-4.9038,-4.9033,-4.8977,-4.8966,-4.8993,-4.8927,-4.8923,-4.8946,-4.8987,-4.8894,-4.8894,-4.9007,-4.9012,-4.9016,-4.9124,0,0,0,0,0,0,-4.9149,-4.9146,-4.9167,-4.9118,-4.9111,-4.9134,-4.9053,-4.9039,-4.9033,-4.9023,-4.898,-4.897,-4.8925,-4.8947,-4.8947,-4.8985,-4.8895,-4.9003,-4.901,-4.9015,-4.9117,-4.9132,-4.9145,0,0,0,0,0,-4.915,-4.92,-4.9169,-4.9166,-4.9136,-4.9136,-4.9132,-4.9078,-4.9037,-4.9058,-4.9023,-4.8972,-4.8983,-4.895,-4.8949,-4.8988,-4.9001,-4.9008,-4.9015,-4.9111,-4.9129,-4.9145,0,0,0,0,0,0,-4.9255,-4.9192,-4.9157,-4.9192,-4.9171,-4.9119,-4.9144,-4.9099,-4.9089,-4.908,-4.9014,-4.9005,-4.9037,-4.9015,-4.898,-4.9044,-4.8984,-4.8991,-4.9057,-4.9074,-4.9088,-4.9093,-4.8895,0,0,0,0,0,-4.9282,-4.9287,-4.9232,-4.9269,-4.926,-4.9204,-4.9202,-4.9163,-4.9138,-4.9128,-4.9094,-4.9073,-4.9071,-4.9071,-4.9067,-4.9113,-4.9103,-4.914,-4.9154,-4.9166,-4.9173,-4.9198,-4.9214,-4.9041,-4.9041,-4.9041,0,0,-4.9338,-4.9305,-4.9312,-4.9289,-4.9267,-4.9275,-4.9197,-4.9208,-4.9213,-4.913,-4.9149,-4.9124,-4.9096,-4.9132,-4.9145,-4.9114,-4.9219,-4.9175,-4.9185,-4.9185,-4.9207,-4.9223,-4.9238,-4.9046,-4.9045,-4.9044,0,0,-4.9445,-4.9419,-4.9447,-4.9428,-4.9396,-4.9359,-4.9366,-4.9322,-4.9302,-4.9321,-4.9259,-4.9265,-4.9263,-4.9246,-4.9237,-4.9339,-4.9292,-4.9339,-4.9413,-4.9438,-4.9452,-4.9463,-4.9501,-4.9515,-4.9347,-4.9347,-4.9347,0,-4.9518,-4.9527,-4.9468,-4.9483,-4.9475,-4.94,-4.9429,-4.9413,-4.9382,-4.9379,-4.9344,-4.9342,-4.9318,-4.9349,-4.9374,-4.9369,-4.9376,-4.9344,-4.9454,-4.9465,-4.9476,-4.9511,-4.9525,-4.9353,-4.9352,-4.9352,-4.9351,0,-4.962,-4.9627,-4.9653,-4.9625,-4.9621,-4.9643,-4.9589,-4.9591,-4.9553,-4.952,-4.9541,-4.9509,-4.9498,-4.9502,-4.9464,-4.9529,-4.951,-4.9466,-4.9404,-4.9499,-4.9531,-4.9544,-4.9361,-4.9359,-4.9358,-4.9356,0,0,-4.9789,-4.9729,-4.974,-4.9727,-4.9688,-4.9693,-4.9712,-4.9701,-4.9705,-4.9687,-4.9702,-4.9704,-4.9663,-4.9653,-4.9613,-4.9635,-4.9719,-4.9587,-4.9586,-4.9614,-4.979,-4.9824,-4.9841,-4.9688,-4.969,-4.9692,-4.9793,0,-4.9888,-4.9917,-4.9865,-4.9907,-4.9913,-4.9843,-4.986,-4.9839,-4.981,-4.9812,-4.9779,-4.9781,-4.9726,-4.972,-4.9739,-4.9705,-4.9754,-4.9697,-4.9703,-4.9704,-4.9713,-4.9857,-4.9893,-4.9989,-4.9805,-4.9807,-4.9808,0,-5.0006,-4.9994,-5.0037,-4.9996,-4.9997,-5.0013,-4.9999,-5.0002,-4.9977,-4.9954,-4.9944,-4.9897,-4.9915,-4.9856,-4.988,-4.9842,-4.9842,-4.9826,-4.9829,-4.9827,-4.9762,-4.986,-5.0018,-5.0033,-4.9827,-4.9826,-4.9824,0,-5.0127,-5.0121,-5.0146,-5.0137,-5.009,-5.0104,-5.0085,-5.0057,-5.0054,-5.0042,-5.004,-5.0031,-5.0026,-5.0021,-4.9974,-4.9935,-5.0004,-4.9941,-4.9987,-4.9988,-5.0005,-5.0004,-5.0165,-5.0004,-5.0004,-5.0003,-5.0003,0,-5.0242,-5.0271,-5.02,-5.0215,-5.0246,-5.0188,-5.022,-5.0195,-5.0171,-5.0181,-5.012,-5.0131,-5.0067,-5.0072,-5.0035,-5.0062,-5.006,-5.0043,-5.0033,-5.0048,-5.0051,-5.0047,-5.004,-5.0007,-5.0006,-5.0006,-5.0005,0,-5.0382,-5.0335,-5.0358,-5.0312,-5.0301,-5.0327,-5.0288,-5.0301,-5.0268,-5.0282,-5.0282,-5.023,-5.0233,-5.0185,-5.0178,-5.0153,-5.0197,-5.0174,-5.0205,-5.0199,-5.0248,-5.0244,-5.0413,-5.0432,-5.0258,-5.026,-5.0261,0,-5.0459,-5.0479,-5.0436,-5.0439,-5.0423,-5.0428,-5.0424,-5.0368,-5.0368,-5.0342,-5.0359,-5.0356,-5.0351,-5.0359,-5.0322,-5.0316,-5.0294,-5.0353,-5.0293,-5.0309,-5.0296,-5.0296,-5.0298,-5.0366,-5.0368,-5.037,-5.0372,0,-5.0601,-5.0577,-5.0574,-5.0565,-5.0563,-5.0552,-5.0538,-5.0544,-5.0482,-5.0485,-5.0487,-5.0483,-5.0477,-5.0476,-5.0464,-5.0445,-5.04,-5.0391,-5.0402,-5.0418,-5.0436,-5.0428,-5.0241,-5.0388,-5.0386,-5.0385,-5.0384,-5.0383,-5.0712,-5.0727,-5.07,-5.07,-5.0683,-5.0672,-5.0682,-5.0651,-5.0651,-5.0641,-5.0608,-5.0617,-5.0593,-5.0572,-5.0558,-5.0565,-5.0535,-5.055,-5.0554,-5.0559,-5.0569,-5.0435,-5.0562,-5.0562,-5.0561,-5.0561,-5.056,0,-5.0851,-5.083,-5.0831,-5.0813,-5.0814,-5.077,-5.0752,-5.0756,-5.0763,-5.0745,-5.0741,-5.0745,-5.0744,-5.0707,-5.0702,-5.0715,-5.0693,-5.0715,-5.0714,-5.0711,-5.0595,-5.0586,-5.0733,-5.0732,-5.0732,-5.0732,-5.0732,-5.0732,-5.0924,-5.0949,-5.0922,-5.0939,-5.0918,-5.0925,-5.0919,-5.0909,-5.0894,-5.09,-5.0899,-5.0875,-5.085,-5.0843,-5.0841,-5.083,-5.0831,-5.0861,-5.0843,-5.0735,-5.0719,-5.0703,-5.0695,-5.0861,-5.0862,-5.0959,-5.096,-5.0961]},{"header":{"parameterUnit":"m.s-1","parameterCategory":1,"la1":30.2991,"la2":30.254,"lo1":-89.0895,"lo2":-89.0444,"dy":0.0017,"dx":0.0017,"nx":28,"ny":28,"refTime":"2024-06-21T09:00:00:Z","depth":0,"parameterNumber":3,"parameterNumberName":"V-component_of_WINDS"},"data":[0,0,0,0,0,0,0,0,0,0,0,0,0,0,0,0,0,0,0,0,0,0,0,0,0,0,0,0,0,0,0,0,0,0,0,0,0,0,0,0,0,0,0,0,0,0,0,0,0,0,0,0,0,0,0,0,0,0,0.7781,0.7781,0,0.7818,0.7819,0.7819,0.7882,0.7883,0.7885,0.7886,0.7921,0.7921,0.7921,0,0,0,0,0,0,0,0,0,0,0,0,0,0.7762,0.7762,0.7781,0.7781,0.7782,0.7818,0.7819,0.7819,0.7882,0.7883,0.7885,0.7886,0.7921,0.7921,0.7921,0,0,0,0,0,0,0,0,0,0,0,0,0,0.7782,0.7762,0.7781,0.7818,0.7821,0.7818,0.7819,0.7819,0.7882,0.7884,0.7885,0.7887,0.7921,0.7921,0.7921,0.7884,0,0,0.792,0.792,0,0,0,0,0,0,0,0,0.7781,0.7783,0.7812,0.7815,0.7819,0.7847,0.7825,0.7841,0.7881,0.7859,0.7886,0.7888,0.7895,0.7897,0.79,0.7885,0.7887,0.792,0.792,0.792,0.792,0,0,0,0,0,0,0,0.7779,0.7781,0.7796,0.7812,0.7817,0.7832,0.7836,0.7828,0.7866,0.7861,0.7866,0.7869,0.7897,0.79,0.7901,0.7887,0.792,0.792,0.792,0.792,0.7843,0.7842,0,0,0,0,0,0,0.7773,0.778,0.7794,0.7797,0.7804,0.7831,0.7836,0.7836,0.7867,0.7873,0.7868,0.7872,0.79,0.7902,0.7903,0.786,0.792,0.792,0.7919,0.7845,0.7843,0.7841,0,0,0,0,0,0,0.7772,0.7774,0.7793,0.779,0.7793,0.7829,0.7829,0.7836,0.7839,0.7872,0.7879,0.7863,0.7901,0.7903,0.7888,0.7862,0.7919,0.7919,0.7847,0.7844,0.7842,0.7775,0,0,0,0,0,0,0.7771,0.7773,0.7759,0.7789,0.7793,0.7778,0.7828,0.7836,0.7839,0.7845,0.787,0.7876,0.7903,0.7888,0.7888,0.7863,0.7919,0.785,0.7846,0.7843,0.7779,0.777,0.7762,0,0,0,0,0,0.7771,0.7739,0.7758,0.776,0.7777,0.7776,0.7778,0.7811,0.7837,0.7823,0.7844,0.7875,0.7866,0.7886,0.7886,0.7861,0.7851,0.7847,0.7843,0.7783,0.7772,0.7762,0,0,0,0,0,0,0.7704,0.7743,0.7765,0.7742,0.7755,0.7787,0.777,0.7798,0.7803,0.7809,0.7849,0.7854,0.7833,0.7846,0.7868,0.7826,0.7863,0.7859,0.7818,0.7807,0.7799,0.7795,0.7919,0,0,0,0,0,0.7687,0.7684,0.7718,0.7694,0.77,0.7734,0.7735,0.7759,0.7774,0.7779,0.7799,0.7812,0.7812,0.7811,0.7813,0.7783,0.7788,0.7766,0.7757,0.775,0.7744,0.7728,0.7718,0.7827,0.7827,0.7827,0,0,0.7651,0.7672,0.7667,0.7681,0.7694,0.7689,0.7738,0.773,0.7726,0.7778,0.7764,0.778,0.7796,0.7773,0.7764,0.7783,0.7716,0.7744,0.7738,0.7737,0.7723,0.7712,0.7703,0.7824,0.7825,0.7825,0,0,0.7582,0.7599,0.758,0.7592,0.7612,0.7635,0.7631,0.7658,0.7671,0.7658,0.7697,0.7693,0.7692,0.7702,0.7707,0.7644,0.7671,0.7643,0.7597,0.758,0.7572,0.7564,0.754,0.7531,0.7639,0.7639,0.7639,0,0.7534,0.7529,0.7567,0.7557,0.7561,0.7609,0.759,0.76,0.7619,0.7621,0.7643,0.7643,0.7658,0.7637,0.7622,0.7625,0.762,0.7639,0.757,0.7563,0.7557,0.7534,0.7524,0.7635,0.7635,0.7636,0.7636,0,0.7468,0.7464,0.7446,0.7464,0.7467,0.7452,0.7488,0.7486,0.7511,0.7531,0.7518,0.7538,0.7544,0.7542,0.7565,0.7524,0.7535,0.7563,0.7601,0.7542,0.7521,0.7512,0.763,0.7631,0.7632,0.7633,0,0,0.7356,0.7396,0.7389,0.7397,0.7423,0.742,0.7408,0.7415,0.7412,0.7424,0.7414,0.7413,0.7439,0.7445,0.747,0.7457,0.7403,0.7486,0.7487,0.7468,0.7357,0.7333,0.7322,0.7423,0.7421,0.742,0.7355,0,0.729,0.7272,0.7306,0.7279,0.7274,0.7321,0.731,0.7325,0.7344,0.7343,0.7364,0.7362,0.7398,0.7402,0.7391,0.7412,0.738,0.7417,0.7411,0.7411,0.7403,0.7312,0.7287,0.7224,0.7347,0.7345,0.7344,0,0.7211,0.7219,0.7192,0.722,0.7219,0.7209,0.7218,0.7217,0.7234,0.7249,0.7256,0.7287,0.7276,0.7314,0.7299,0.7323,0.7324,0.7334,0.7332,0.733,0.7372,0.7305,0.7205,0.7194,0.7332,0.7333,0.7334,0,0.7128,0.7134,0.7118,0.7124,0.7156,0.7148,0.7161,0.718,0.7182,0.7191,0.7192,0.7199,0.7202,0.7206,0.7237,0.7263,0.7217,0.7259,0.7228,0.7227,0.7214,0.7214,0.7109,0.7218,0.7218,0.7219,0.7219,0,0.705,0.7031,0.7081,0.7071,0.7051,0.7091,0.707,0.7087,0.7104,0.7098,0.7139,0.7132,0.7175,0.7172,0.7197,0.718,0.7181,0.7192,0.7198,0.7187,0.7185,0.7185,0.7189,0.7216,0.7217,0.7217,0.7218,0,0.6953,0.6987,0.6972,0.7005,0.7013,0.6996,0.7024,0.7015,0.7038,0.7029,0.703,0.7065,0.7064,0.7097,0.7102,0.7119,0.709,0.7105,0.7083,0.7087,0.7053,0.7055,0.6943,0.693,0.705,0.7049,0.7048,0,0.69,0.6886,0.6918,0.6917,0.6928,0.6926,0.6929,0.6969,0.697,0.6989,0.6977,0.698,0.6984,0.698,0.7006,0.701,0.7024,0.6985,0.7025,0.7014,0.7021,0.702,0.7018,0.6975,0.6974,0.6973,0.6972,0,0.68,0.6818,0.6821,0.6829,0.6831,0.684,0.6851,0.6848,0.6891,0.689,0.689,0.6893,0.6899,0.6901,0.691,0.6923,0.6953,0.696,0.6952,0.6939,0.6926,0.693,0.7057,0.6961,0.6962,0.6963,0.6964,0.6964,0.6722,0.6712,0.6732,0.6734,0.6747,0.6756,0.675,0.6773,0.6774,0.6782,0.6806,0.6802,0.682,0.6835,0.6845,0.6842,0.6861,0.6851,0.6848,0.6844,0.6837,0.6929,0.6844,0.6845,0.6845,0.6845,0.6845,0,0.6622,0.6639,0.664,0.6654,0.6656,0.6687,0.6701,0.67,0.6696,0.671,0.6714,0.6713,0.6715,0.6742,0.6747,0.6739,0.6753,0.6738,0.6738,0.674,0.682,0.6825,0.6727,0.6727,0.6727,0.6727,0.6727,0.6727,0.6571,0.6555,0.6575,0.6565,0.6582,0.6578,0.6583,0.6592,0.6604,0.6602,0.6604,0.6622,0.6641,0.6648,0.6651,0.6659,0.6657,0.6637,0.6649,0.6723,0.6735,0.6745,0.675,0.6637,0.6637,0.6569,0.6569,0.6568]}]]